Time,TemperatureF,DewpointF,PressureIn,WindDirection,WindDirectionDegrees,WindSpeedMPH,WindSpeedGustMPH,Humidity,HourlyPrecipIn,Conditions,Clouds,dailyrainin,SoftwareType,DateUTC
2013-09-09 00:04:00,70.7,53.0,29.72,South,173,0.0,-999.0,53,-99.99,,,0.00,weatherlink.com 1.10,2013-09-09 06:04:00,
2013-09-09 00:19:00,69.8,52.0,29.71,South,173,0.0,-999.0,54,-99.99,,,0.00,weatherlink.com 1.10,2013-09-09 06:19:00,
2013-09-09 00:34:00,68.9,52.0,29.71,South,173,0.0,-999.0,56,-99.99,,,0.00,weatherlink.com 1.10,2013-09-09 06:34:00,
2013-09-09 00:49:00,68.3,53.0,29.71,South,173,0.0,-999.0,59,-99.99,,,0.00,weatherlink.com 1.10,2013-09-09 06:49:00,
2013-09-09 01:04:00,67.9,53.0,29.71,South,173,0.0,-999.0,60,-99.99,,,0.00,weatherlink.com 1.10,2013-09-09 07:04:00,
2013-09-09 01:19:00,67.6,53.0,29.70,South,173,0.0,-999.0,60,-99.99,,,0.00,weatherlink.com 1.10,2013-09-09 07:19:00,
2013-09-09 01:34:00,67.2,53.0,29.70,South,173,0.0,-999.0,61,-99.99,,,0.00,weatherlink.com 1.10,2013-09-09 07:34:00,
2013-09-09 01:49:00,66.7,53.0,29.70,South,173,0.0,-999.0,62,-99.99,,,0.00,weatherlink.com 1.10,2013-09-09 07:49:00,
2013-09-09 02:04:00,66.1,53.0,29.70,South,173,0.0,-999.0,64,-99.99,,,0.00,weatherlink.com 1.10,2013-09-09 08:04:00,
2013-09-09 02:19:00,65.6,54.0,29.69,South,173,0.0,-999.0,66,-99.99,,,0.00,weatherlink.com 1.10,2013-09-09 08:19:00,
2013-09-09 02:34:00,65.1,53.0,29.69,South,173,0.0,-999.0,66,-99.99,,,0.00,weatherlink.com 1.10,2013-09-09 08:34:00,
2013-09-09 02:49:00,64.5,53.0,29.69,South,173,0.0,-999.0,67,-99.99,,,0.00,weatherlink.com 1.10,2013-09-09 08:49:00,
2013-09-09 03:04:00,63.9,54.0,29.69,South,173,0.0,-999.0,70,-99.99,,,0.00,weatherlink.com 1.10,2013-09-09 09:04:00,
2013-09-09 03:19:00,63.3,54.0,29.69,South,173,0.0,-999.0,71,-99.99,,,0.00,weatherlink.com 1.10,2013-09-09 09:19:00,
2013-09-09 03:34:00,62.7,54.0,29.69,South,173,0.0,-999.0,72,-99.99,,,0.00,weatherlink.com 1.10,2013-09-09 09:34:00,
2013-09-09 03:49:00,62.1,54.0,29.68,South,173,0.0,-999.0,74,-99.99,,,0.00,weatherlink.com 1.10,2013-09-09 09:49:00,
2013-09-09 04:04:00,61.6,53.0,29.68,South,173,0.0,-999.0,74,-99.99,,,0.00,weatherlink.com 1.10,2013-09-09 10:04:00,
2013-09-09 04:19:00,61.0,53.0,29.68,South,173,0.0,-999.0,74,-99.99,,,0.00,weatherlink.com 1.10,2013-09-09 10:19:00,
2013-09-09 04:34:00,60.4,52.0,29.68,South,173,0.0,-999.0,75,-99.99,,,0.00,weatherlink.com 1.10,2013-09-09 10:34:00,
2013-09-09 04:49:00,60.0,53.0,29.68,South,173,0.0,-999.0,78,-99.99,,,0.00,weatherlink.com 1.10,2013-09-09 10:49:00,
2013-09-09 05:04:00,59.6,53.0,29.68,South,173,0.0,-999.0,80,-99.99,,,0.00,weatherlink.com 1.10,2013-09-09 11:04:00,
2013-09-09 05:19:00,59.3,54.0,29.68,South,173,0.0,-999.0,81,-99.99,,,0.00,weatherlink.com 1.10,2013-09-09 11:19:00,
2013-09-09 05:34:00,58.9,53.0,29.68,South,173,0.0,-999.0,81,-99.99,,,0.00,weatherlink.com 1.10,2013-09-09 11:34:00,
2013-09-09 05:49:00,58.6,53.0,29.69,South,173,0.0,-999.0,82,-99.99,,,0.00,weatherlink.com 1.10,2013-09-09 11:49:00,
2013-09-09 06:04:00,58.2,53.0,29.69,South,173,0.0,-999.0,83,-99.99,,,0.00,weatherlink.com 1.10,2013-09-09 12:04:00,
2013-09-09 06:19:00,57.9,53.0,29.69,South,173,0.0,-999.0,83,-99.99,,,0.00,weatherlink.com 1.10,2013-09-09 12:19:00,
2013-09-09 06:34:00,57.5,53.0,29.68,South,173,0.0,-999.0,84,-99.99,,,0.00,weatherlink.com 1.10,2013-09-09 12:34:00,
2013-09-09 06:49:00,57.2,52.0,29.69,South,173,0.0,-999.0,84,-99.99,,,0.00,weatherlink.com 1.10,2013-09-09 12:49:00,
2013-09-09 07:04:00,56.8,52.0,29.70,South,173,0.0,-999.0,85,-99.99,,,0.00,weatherlink.com 1.10,2013-09-09 13:04:00,
2013-09-09 07:19:00,56.7,53.0,29.70,South,173,0.0,-999.0,86,-99.99,,,0.00,weatherlink.com 1.10,2013-09-09 13:19:00,
2013-09-09 07:34:00,56.9,53.0,29.70,South,173,0.0,-999.0,86,-99.99,,,0.00,weatherlink.com 1.10,2013-09-09 13:34:00,
2013-09-09 07:49:00,57.7,54.0,29.70,South,173,0.0,-999.0,86,-99.99,,,0.00,weatherlink.com 1.10,2013-09-09 13:49:00,
2013-09-09 08:04:00,59.4,55.0,29.70,South,173,0.0,-999.0,84,-99.99,,,0.00,weatherlink.com 1.10,2013-09-09 14:04:00,
2013-09-09 08:19:00,61.6,55.0,29.71,ESE,112,0.0,-999.0,78,-99.99,,,0.00,weatherlink.com 1.10,2013-09-09 14:19:00,
2013-09-09 08:34:00,63.1,54.0,29.71,ESE,111,0.0,-999.0,73,-99.99,,,0.00,weatherlink.com 1.10,2013-09-09 14:34:00,
2013-09-09 08:49:00,64.5,55.0,29.71,ESE,111,0.0,-999.0,72,-99.99,,,0.00,weatherlink.com 1.10,2013-09-09 14:49:00,
2013-09-09 09:04:00,65.6,55.0,29.71,ESE,111,0.0,-999.0,69,-99.99,,,0.00,weatherlink.com 1.10,2013-09-09 15:04:00,
2013-09-09 09:19:00,66.6,54.0,29.71,ESE,111,0.0,-999.0,65,-99.99,,,0.00,weatherlink.com 1.10,2013-09-09 15:19:00,
2013-09-09 09:34:00,68.1,55.0,29.71,ESE,111,0.0,-999.0,64,-99.99,,,0.00,weatherlink.com 1.10,2013-09-09 15:34:00,
2013-09-09 09:49:00,70.7,56.0,29.71,ESE,111,0.0,-999.0,60,-99.99,,,0.00,weatherlink.com 1.10,2013-09-09 15:49:00,
2013-09-09 10:04:00,73.3,57.0,29.70,ESE,111,0.0,-999.0,56,-99.99,,,0.00,weatherlink.com 1.10,2013-09-09 16:04:00,
2013-09-09 10:19:00,76.4,56.0,29.70,ESE,123,1.0,-999.0,49,-99.99,,,0.00,weatherlink.com 1.10,2013-09-09 16:19:00,
2013-09-09 10:34:00,78.6,56.0,29.70,South,175,1.0,-999.0,46,-99.99,,,0.00,weatherlink.com 1.10,2013-09-09 16:34:00,
2013-09-09 10:49:00,80.6,57.0,29.69,SSE,163,1.0,-999.0,45,-99.99,,,0.00,weatherlink.com 1.10,2013-09-09 16:49:00,
2013-09-09 11:04:00,82.0,57.0,29.69,South,179,1.0,-999.0,43,-99.99,,,0.00,weatherlink.com 1.10,2013-09-09 17:04:00,
2013-09-09 11:19:00,83.2,56.0,29.68,SSE,159,5.0,-999.0,40,-99.99,,,0.00,weatherlink.com 1.10,2013-09-09 17:19:00,
2013-09-09 11:34:00,83.5,58.0,29.68,South,186,3.0,-999.0,42,-99.99,,,0.00,weatherlink.com 1.10,2013-09-09 17:34:00,
2013-09-09 11:49:00,84.5,59.0,29.68,South,188,0.0,-999.0,42,-99.99,,,0.00,weatherlink.com 1.10,2013-09-09 17:49:00,
2013-09-09 12:04:00,85.6,56.0,29.67,South,191,0.0,-999.0,37,-99.99,,,0.00,weatherlink.com 1.10,2013-09-09 18:04:00,
2013-09-09 12:19:00,86.6,59.0,29.66,South,184,3.0,-999.0,39,-99.99,,,0.00,weatherlink.com 1.10,2013-09-09 18:19:00,
2013-09-09 12:34:00,87.2,57.0,29.65,South,178,0.0,-999.0,36,-99.99,,,0.00,weatherlink.com 1.10,2013-09-09 18:34:00,
2013-09-09 12:49:00,87.8,56.0,29.64,SE,137,5.0,-999.0,34,-99.99,,,0.00,weatherlink.com 1.10,2013-09-09 18:49:00,
2013-09-09 13:04:00,88.1,56.0,29.64,SSW,192,4.0,-999.0,34,-99.99,,,0.00,weatherlink.com 1.10,2013-09-09 19:04:00,
2013-09-09 13:19:00,87.9,55.0,29.63,NW,321,1.0,-999.0,33,-99.99,,,0.00,weatherlink.com 1.10,2013-09-09 19:19:00,
2013-09-09 13:34:00,88.5,55.0,29.62,SSE,160,1.0,-999.0,32,-99.99,,,0.00,weatherlink.com 1.10,2013-09-09 19:34:00,
2013-09-09 13:49:00,89.3,60.0,29.62,NW,323,0.0,-999.0,37,-99.99,,,0.00,weatherlink.com 1.10,2013-09-09 19:49:00,
2013-09-09 14:04:00,89.9,55.0,29.61,South,173,2.0,-999.0,30,-99.99,,,0.00,weatherlink.com 1.10,2013-09-09 20:04:00,
2013-09-09 14:19:00,90.0,56.0,29.60,SSE,163,2.0,-999.0,32,-99.99,,,0.00,weatherlink.com 1.10,2013-09-09 20:19:00,
2013-09-09 14:34:00,90.6,56.0,29.59,ESE,103,0.0,-999.0,31,-99.99,,,0.00,weatherlink.com 1.10,2013-09-09 20:34:00,
2013-09-09 14:49:00,91.0,54.0,29.58,SSW,199,0.0,-999.0,28,-99.99,,,0.00,weatherlink.com 1.10,2013-09-09 20:49:00,
2013-09-09 15:04:00,90.8,53.0,29.57,South,182,0.0,-999.0,28,-99.99,,,0.00,weatherlink.com 1.10,2013-09-09 21:04:00,
2013-09-09 15:19:00,90.5,56.0,29.56,SE,144,1.0,-999.0,31,-99.99,,,0.00,weatherlink.com 1.10,2013-09-09 21:19:00,
2013-09-09 15:34:00,90.4,55.0,29.55,WSW,254,0.0,-999.0,30,-99.99,,,0.00,weatherlink.com 1.10,2013-09-09 21:34:00,
2013-09-09 15:49:00,90.3,55.0,29.55,SSE,158,0.0,-999.0,30,-99.99,,,0.00,weatherlink.com 1.10,2013-09-09 21:49:00,
2013-09-09 16:04:00,89.3,53.0,29.54,East,98,2.0,-999.0,29,-99.99,,,0.00,weatherlink.com 1.10,2013-09-09 22:04:00,
2013-09-09 16:19:00,88.0,53.0,29.54,North,355,0.0,-999.0,30,-99.99,,,0.00,weatherlink.com 1.10,2013-09-09 22:19:00,
2013-09-09 16:34:00,87.2,51.0,29.53,South,180,2.0,-999.0,29,-99.99,,,0.00,weatherlink.com 1.10,2013-09-09 22:34:00,
2013-09-09 16:49:00,86.7,51.0,29.53,West,274,0.0,-999.0,29,-99.99,,,0.00,weatherlink.com 1.10,2013-09-09 22:49:00,
2013-09-09 17:04:00,86.5,53.0,29.53,NW,324,0.0,-999.0,32,-99.99,,,0.00,weatherlink.com 1.10,2013-09-09 23:04:00,
2013-09-09 17:19:00,86.0,53.0,29.53,WNW,292,2.0,-999.0,32,-99.99,,,0.00,weatherlink.com 1.10,2013-09-09 23:19:00,
2013-09-09 17:34:00,84.4,50.0,29.53,South,175,5.0,-999.0,30,-99.99,,,0.00,weatherlink.com 1.10,2013-09-09 23:34:00,
2013-09-09 17:49:00,83.0,50.0,29.53,SSE,162,0.0,-999.0,32,-99.99,,,0.00,weatherlink.com 1.10,2013-09-09 23:49:00,
2013-09-09 18:04:00,82.2,52.0,29.54,SSE,162,0.0,-999.0,35,-99.99,,,0.00,weatherlink.com 1.10,2013-09-10 00:04:00,
2013-09-09 18:19:00,81.5,52.0,29.54,SSE,162,0.0,-999.0,36,-99.99,,,0.00,weatherlink.com 1.10,2013-09-10 00:19:00,
2013-09-09 18:34:00,80.7,51.0,29.54,SSE,162,2.0,-999.0,36,-99.99,,,0.00,weatherlink.com 1.10,2013-09-10 00:34:00,
2013-09-09 18:49:00,79.8,49.0,29.54,SSE,162,0.0,-999.0,34,-99.99,,,0.00,weatherlink.com 1.10,2013-09-10 00:49:00,
2013-09-09 19:04:00,79.2,51.0,29.55,SSE,162,0.0,-999.0,37,-99.99,,,0.00,weatherlink.com 1.10,2013-09-10 01:04:00,
2013-09-09 19:19:00,78.4,49.0,29.55,SSE,162,0.0,-999.0,36,-99.99,,,0.00,weatherlink.com 1.10,2013-09-10 01:19:00,
2013-09-09 19:34:00,77.8,49.0,29.56,SSE,162,0.0,-999.0,37,-99.99,,,0.00,weatherlink.com 1.10,2013-09-10 01:34:00,
2013-09-09 19:49:00,76.8,49.0,29.57,SSE,162,0.0,-999.0,37,-99.99,,,0.00,weatherlink.com 1.10,2013-09-10 01:49:00,
2013-09-09 20:04:00,75.8,50.0,29.57,SSE,162,0.0,-999.0,40,-99.99,,,0.00,weatherlink.com 1.10,2013-09-10 02:04:00,
2013-09-09 20:19:00,75.1,50.0,29.59,SSE,162,1.0,-999.0,41,-99.99,,,0.00,weatherlink.com 1.10,2013-09-10 02:19:00,
2013-09-09 20:34:00,76.4,47.0,29.60,South,175,4.0,-999.0,36,-99.99,,,0.00,weatherlink.com 1.10,2013-09-10 02:34:00,
2013-09-09 20:49:00,78.9,50.0,29.61,SE,141,6.0,-999.0,36,-99.99,,,0.00,weatherlink.com 1.10,2013-09-10 02:49:00,
2013-09-09 21:04:00,79.4,52.0,29.62,South,182,2.0,-999.0,38,-99.99,,,0.00,weatherlink.com 1.10,2013-09-10 03:04:00,
2013-09-09 21:20:00,77.9,57.0,29.65,SSW,202,1.0,-999.0,49,-99.99,,,0.00,weatherlink.com 1.10,2013-09-10 03:20:00,
2013-09-09 21:34:00,75.1,59.0,29.64,SW,226,0.0,-999.0,58,-99.99,,,0.03,weatherlink.com 1.10,2013-09-10 03:34:00,
2013-09-09 21:49:00,72.0,60.0,29.63,SW,226,0.0,-999.0,66,-99.99,,,0.04,weatherlink.com 1.10,2013-09-10 03:49:00,
2013-09-09 22:04:00,69.6,60.0,29.64,SW,226,0.0,-999.0,72,-99.99,,,0.04,weatherlink.com 1.10,2013-09-10 04:04:00,
2013-09-09 22:19:00,67.9,58.0,29.65,SSW,200,0.0,-999.0,70,-99.99,,,0.04,weatherlink.com 1.10,2013-09-10 04:19:00,
2013-09-09 22:34:00,68.2,57.0,29.65,South,173,0.0,-999.0,67,-99.99,,,0.04,weatherlink.com 1.10,2013-09-10 04:34:00,
2013-09-09 22:49:00,69.6,57.0,29.66,South,190,6.0,-999.0,64,-99.99,,,0.04,weatherlink.com 1.10,2013-09-10 04:49:00,
2013-09-09 23:04:00,70.1,57.0,29.67,South,180,1.0,-999.0,64,-99.99,,,0.04,weatherlink.com 1.10,2013-09-10 05:04:00,
2013-09-09 23:19:00,70.1,57.0,29.67,South,186,3.0,-999.0,63,-99.99,,,0.04,weatherlink.com 1.10,2013-09-10 05:19:00,
2013-09-09 23:34:00,70.1,56.0,29.67,South,180,2.0,-999.0,62,-99.99,,,0.04,weatherlink.com 1.10,2013-09-10 05:34:00,
2013-09-09 23:49:00,70.0,56.0,29.67,South,177,1.0,-999.0,62,-99.99,,,0.04,weatherlink.com 1.10,2013-09-10 05:49:00,